Teterboro, NJ

9:53 PM EST on December 14, 2017 (GMT -0500)
Teterboro

Weather History for KTEB - April, 2013

Change the Weather History Date:

Thursday, April 11, 2013

  Actual Average Record
Temperature  
Mean Temperature 55 °F -  
Max Temperature 62 °F 59 °F 84 °F (2011)
Min Temperature 46 °F 39 °F 30 °F (2007)
Degree Days  
Heating Degree Days 10    
Growing Degree Days 5 (Base 50)    
Moisture  
Dew Point 48 °F    
Average Humidity 80    
Maximum Humidity 100    
Minimum Humidity 58    
Precipitation  
Precipitation 0.00 in - - ()
Sea Level Pressure  
Sea Level Pressure 29.93 in    
Wind  
Wind Speed 7 mph (ENE)    
Max Wind Speed 13 mph    
Max Gust Speed 20 mph    
Visibility 8 miles    
Events      
Averages and records for this station are not official NWS values.
T = Trace of Precipitation, MM = Missing Value Source: NWS Daily Summary

Daily Weather History Graph

Daily Weather History Graph

Search for Another Location

Airport or City:

Trip Planner

Search our weather history database for the weather conditions in past years. The results will help you decide how hot, cold, wet, or windy it might be!

Date:

Astronomy

Apr. 11, 2013 Rise Set
Actual Time 6:23 AM EDT 7:31 PM EDT
Civil Twilight 5:55 AM EDT 8:00 PM EDT
Nautical Twilight 5:21 AM EDT 8:33 PM EDT
Astronomical Twilight 4:46 AM EDT 9:09 PM EDT
Moon 6:52 AM EDT (4/11) 9:04 PM EDT (4/11)
Length of Visible Light 14h 05m
Length of Day
13h 08m
New Moon, 2% of the Moon is Illuminated
Apr 11
New Moon
Apr 18
First Quarter
Apr 25
Full
May 2
Last Quarter
May 9
New

Hourly Weather History & Observations

Time (EDT) Temp. Dew Point Humidity Pressure Visibility Wind Dir Wind Speed Gust Speed Precip Events Conditions
12:51 AM 57.9 °F 57.0 °F 97% 29.84 in 5.0 mi SW 10.4 mph - 0.00 in   Overcast
1:06 AM 57.2 °F 57.2 °F 100% 29.83 in 3.0 mi SSW 6.9 mph - N/A   Overcast
1:13 AM 57.2 °F 57.2 °F 100% 29.84 in 3.0 mi SW 5.8 mph - N/A   Overcast
1:51 AM 59.0 °F 57.9 °F 96% 29.82 in 3.0 mi Calm Calm - N/A   Overcast
2:51 AM 57.9 °F 57.0 °F 97% 29.77 in 3.0 mi Calm Calm - N/A   Overcast
3:21 AM 57.2 °F 57.2 °F 100% 29.79 in 3.0 mi Calm Calm - N/A   Overcast
3:48 AM 57.2 °F 57.2 °F 100% 29.81 in 3.0 mi North 4.6 mph - N/A   Mostly Cloudy
3:51 AM 57.9 °F 57.9 °F 100% 29.81 in 3.0 mi Calm Calm - N/A   Mostly Cloudy
4:51 AM 57.9 °F 55.9 °F 93% 29.84 in 3.0 mi North 9.2 mph - N/A   Overcast
5:51 AM 55.0 °F 52.0 °F 89% 29.88 in 5.0 mi NNE 9.2 mph - N/A   Overcast
6:25 AM 53.6 °F 50.0 °F 88% 29.90 in 10.0 mi NNE 8.1 mph - N/A   Overcast
6:51 AM 54.0 °F 50.0 °F 86% 29.91 in 10.0 mi NNE 5.8 mph - N/A   Overcast
7:18 AM 53.6 °F 48.2 °F 82% 29.92 in 10.0 mi NE 6.9 mph - N/A   Overcast
7:37 AM 53.6 °F 48.2 °F 82% 29.92 in 10.0 mi NNE 5.8 mph - N/A   Mostly Cloudy
7:51 AM 53.1 °F 48.9 °F 86% 29.92 in 10.0 mi NNE 5.8 mph - N/A   Overcast
8:51 AM 53.1 °F 46.0 °F 77% 29.94 in 10.0 mi NNE 10.4 mph - N/A   Overcast
9:22 AM 51.8 °F 44.6 °F 76% 29.94 in 10.0 mi North 11.5 mph 19.6 mph N/A   Overcast
9:51 AM 53.1 °F 45.0 °F 74% 29.94 in 10.0 mi North 11.5 mph - N/A   Overcast
10:20 AM 53.6 °F 44.6 °F 72% 29.96 in 10.0 mi North 8.1 mph - N/A   Overcast
10:51 AM 55.9 °F 46.0 °F 69% 29.95 in 10.0 mi North 4.6 mph - N/A   Overcast
11:51 AM 60.1 °F 48.0 °F 64% 29.96 in 10.0 mi Variable 4.6 mph - N/A   Overcast
12:51 PM 62.1 °F 46.9 °F 58% 29.95 in 10.0 mi North 5.8 mph - N/A   Overcast
1:51 PM 60.1 °F 48.0 °F 64% 29.96 in 10.0 mi SE 5.8 mph - N/A   Overcast
2:51 PM 60.1 °F 48.0 °F 64% 29.94 in 10.0 mi ESE 6.9 mph - N/A   Overcast
3:51 PM 59.0 °F 46.9 °F 64% 29.94 in 10.0 mi East 9.2 mph - N/A   Overcast
4:51 PM 59.0 °F 46.9 °F 64% 29.94 in 10.0 mi East 6.9 mph - N/A   Overcast
5:51 PM 57.9 °F 45.0 °F 62% 29.96 in 10.0 mi ESE 9.2 mph - N/A   Overcast
6:51 PM 52.0 °F 46.0 °F 80% 29.98 in 10.0 mi SE 10.4 mph - N/A   Overcast
7:16 PM 51.8 °F 44.6 °F 76% 29.99 in 10.0 mi SE 6.9 mph - N/A   Overcast
7:51 PM 50.0 °F 44.1 °F 80% 29.99 in 10.0 mi SE 12.7 mph 18.4 mph N/A   Overcast
8:51 PM 48.9 °F 42.1 °F 77% 30.02 in 10.0 mi ESE 11.5 mph - N/A   Overcast
9:44 PM 48.2 °F 41.0 °F 76% 30.03 in 10.0 mi East 10.4 mph - N/A   Overcast
9:51 PM 48.9 °F 41.0 °F 74% 30.03 in 10.0 mi East 9.2 mph - N/A   Overcast
10:22 PM 48.2 °F 39.2 °F 71% 30.04 in 10.0 mi ENE 9.2 mph - N/A   Overcast
10:51 PM 48.0 °F 39.9 °F 74% 30.04 in 10.0 mi East 8.1 mph - N/A   Overcast
11:28 PM 48.2 °F 39.2 °F 71% 30.04 in 10.0 mi ENE 6.9 mph - N/A   Overcast
11:51 PM 46.9 °F 37.9 °F 71% 30.03 in 10.0 mi ENE 9.2 mph - N/A   Overcast